sat.trackr.live / text

‹ back to catalog

STARLINK-31316

NORAD 59090 · 2024-041S

PAYLOAD ACTIVE UNKNOWN

§ Identity

Operator
Country
US
Launch date
2024-02-29
Launch site
AFETR
Launch vehicle
Mass (kg)
RCS (m²)

Purposes: comms

External: N2YO · Heavens-Above · Gunter

§ Orbital elements

Epoch: 2026-05-25T03:07:33.151584Z

Period
94.27 min
Inclination
43.0029°
Eccentricity
0.0001639
Mean motion
15.27577980 rev/d
Perigee alt
481.9 km
Apogee alt
484.2 km
Semi-major
6,861.2 km
B*
3.7854e-5
RAAN
192.1917°
Arg perigee
262.2771°
Mean anomaly
97.7895°
Rev number
12,644

§ Raw data

STARLINK-313161 59090U 24041S   26145.13024481  .00000779  00000+0  37854-4 0  99982 59090  43.0029 192.1917 0001639 262.2771  97.7895 15.27577980126442

JSON: /api/v1/satellites/59090 · /tle

For live sub-satellite position, see the globe view (requires WebGL).

§ Visibility from observer

Set your observer location to see the next 7 days of passes ≥ 10°. The values pass through the URL so the page stays shareable.

No JS? Fill the form by hand. The geolocation button needs JavaScript.